Overview Statistics Trail Chart Weather Telemetry Raw packets
 

This is the latest recevied weather packets stored in our database for station/object YD2CLX-11. If no packets are shown the sender has not sent any weather packets the latest 10 day(s).

<< 3 4 5 6 7 8 9 >>
Time Temp. Humidity Pressure Rain* Wind** Luminosity Snow
1788534798 24.44° C 83% 1001.2 hPa - - - -
1788534197 24.44° C 83% 1001.3 hPa - - - -
1788533596 25° C 82% 1001.3 hPa - - - -
1788532994 24.44° C 83% 1001.3 hPa - - - -
1788532393 25° C 82% 1001.3 hPa - - - -
1788531791 25° C 82% 1001.2 hPa - - - -
1788531191 25° C 81% 1001.3 hPa - - - -
1788530590 25° C 80% 1001.3 hPa - - - -
1788529988 25° C 81% 1001.4 hPa - - - -
1788529387 25.56° C 79% 1001.3 hPa - - - -
1788528786 26.11° C 78% 1001.1 hPa - - - -
1788528185 26.11° C 78% 1001.1 hPa - - - -
1788527584 26.67° C 76% 1001 hPa - - - -
1788526983 26.11° C 77% 1001 hPa - - - -
1788526382 26.67° C 76% 1001 hPa - - - -
1788525781 26.67° C 75% 1000.9 hPa - - - -
1788525180 27.22° C 74% 1000.9 hPa - - - -
1788524578 27.22° C 73% 1000.7 hPa - - - -
1788523977 27.78° C 72% 1000.5 hPa - - - -
1788523376 27.78° C 71% 1000.3 hPa - - - -
1788522775 27.78° C 71% 1000.1 hPa - - - -
1788522174 28.33° C 69% 999.9 hPa - - - -
1788521573 28.89° C 68% 999.6 hPa - - - -
1788520972 28.89° C 67% 999.4 hPa - - - -
1788520371 28.89° C 67% 999.1 hPa - - - -

* Rain since midnight (hover to see other rain measurements)
** Current wind speed in m/s (hover to see current wind gust speed)